Weather History for Watford City, ND

Change the Weather History Date:

Thursday, February 7, 2013

  Actual Average (KISN) Record (KISN)
Temperature  
Mean Temperature 26 °F 14 °F  
Max Temperature 30 °F 25 °F 58 °F (1991)
Min Temperature 21 °F 4 °F -40 °F (1895)
Degree Days  
Heating Degree Days 40 51  
Month to date heating degree days 360  
Since 1 July heating degree days 5781  
Cooling Degree Days 0 0  
Month to date cooling degree days 0  
Year to date cooling degree days 0  
Moisture  
Dew Point 25 °F    
Average Humidity 99    
Maximum Humidity 100    
Minimum Humidity 86    
Precipitation  
Precipitation 0.00 in 0.02 in 0.30 in (1952)
Month to date precipitation 0.09  
Year to date precipitation 0.68  
Sea Level Pressure  
Sea Level Pressure 30.02 in    
Wind  
Wind Speed 10 mph (ESE)    
Max Wind Speed 14 mph    
Max Gust Speed -    
Visibility 4 miles    
Events      
T = Trace of Precipitation, MM = Missing Value Source: NWS Daily Summary

Daily Weather History Graph

Daily Weather History Graph

Search for Another Location

Airport:

Trip Planner

Search our weather history database for the weather conditions in past years. The results will help you decide how hot, cold, wet, or windy it might be!

Date:

Astronomy

Feb. 07, 2013 Rise Set
Actual Time 8:11 AM CST 6:03 PM CST
Civil Twilight 7:38 AM CST 6:36 PM CST
Nautical Twilight 7:02 AM CST 7:12 PM CST
Astronomical Twilight 6:26 AM CST 7:48 PM CST
Moon 5:59 AM CST (2/7) 3:24 PM CST (2/7)
Length of Visible Light 10h 57m
Length of Day
9h 52m
Waning Crescent, 9% of the Moon is Illuminated
Feb 7
Waning Crescent
Feb 10
New
Feb 17
First Quarter
Feb 25
Full
Mar 4
Last Quarter

Hourly Weather History & Observations

Time (CST) Temp. Windchill Dew Point Humidity Pressure Visibility Wind Dir Wind Speed Gust Speed Precip Events Conditions
12:15 AM 24.8 °F 12.9 °F 24.8 °F 100% 29.98 in 3.0 mi ESE 13.8 mph - N/A   Overcast
12:35 AM 24.8 °F 14.0 °F 24.8 °F 100% 29.99 in 3.0 mi ESE 11.5 mph - N/A   Overcast
12:55 AM 24.8 °F 14.0 °F 24.8 °F 100% 30.00 in 2.5 mi ESE 11.5 mph - N/A   Overcast
1:15 AM 24.8 °F 13.4 °F 24.8 °F 100% 30.00 in 2.0 mi SE 12.7 mph - N/A   Overcast
1:35 AM 24.8 °F 14.0 °F 24.8 °F 100% 30.00 in 1.2 mi ESE 11.5 mph - N/A   Overcast
1:55 AM 24.8 °F 14.0 °F 24.8 °F 100% 30.00 in 1.0 mi SE 11.5 mph - N/A   Overcast
2:15 AM 24.8 °F 14.6 °F 24.8 °F 100% 30.00 in 1.2 mi ESE 10.4 mph - N/A   Overcast
2:35 AM 24.8 °F 15.3 °F 24.8 °F 100% 30.01 in 1.5 mi ESE 9.2 mph - N/A   Overcast
2:55 AM 24.8 °F 14.0 °F 24.8 °F 100% 30.00 in 1.2 mi ESE 11.5 mph - N/A   Overcast
3:15 AM 24.8 °F 13.4 °F 24.8 °F 100% 30.01 in 1.5 mi ESE 12.7 mph - N/A   Overcast
3:35 AM 24.8 °F 13.4 °F 24.8 °F 100% 30.00 in 1.0 mi SE 12.7 mph - N/A   Overcast
3:55 AM 24.8 °F 14.0 °F 24.8 °F 100% 30.00 in 1.2 mi ESE 11.5 mph - N/A   Overcast
4:15 AM 23.0 °F 13.1 °F 23.0 °F 100% 30.01 in 1.0 mi ESE 9.2 mph - N/A   Overcast
4:35 AM 23.0 °F 13.1 °F 23.0 °F 100% 30.01 in 1.2 mi ESE 9.2 mph - N/A   Overcast
4:55 AM 23.0 °F 13.1 °F 23.0 °F 100% 30.01 in 1.5 mi ESE 9.2 mph - N/A   Overcast
5:15 AM 23.0 °F 12.4 °F 23.0 °F 100% 30.01 in 1.8 mi SE 10.4 mph - N/A   Overcast
5:35 AM 23.0 °F 12.4 °F 23.0 °F 100% 30.02 in 1.5 mi ESE 10.4 mph - N/A   Overcast
6:15 AM 23.0 °F 13.9 °F 23.0 °F 100% 30.02 in 2.0 mi ESE 8.1 mph - N/A   Overcast
6:35 AM 23.0 °F 12.4 °F 23.0 °F 100% 30.02 in 1.2 mi ESE 10.4 mph - N/A   Overcast
6:55 AM 23.0 °F 13.1 °F 23.0 °F 100% 30.02 in 1.2 mi ESE 9.2 mph - N/A   Overcast
7:15 AM 23.0 °F 12.4 °F 23.0 °F 100% 30.02 in 1.5 mi ESE 10.4 mph - N/A   Overcast
7:35 AM 23.0 °F 12.4 °F 23.0 °F 100% 30.02 in 1.5 mi ESE 10.4 mph - N/A   Overcast
7:55 AM 23.0 °F 13.9 °F 23.0 °F 100% 30.03 in 1.5 mi ESE 8.1 mph - N/A   Overcast
8:15 AM 23.0 °F 13.1 °F 23.0 °F 100% 30.03 in 1.0 mi East 9.2 mph - N/A   Overcast
8:35 AM 21.2 °F 9.5 °F 21.2 °F 100% 30.04 in 1.2 mi East 11.5 mph - N/A   Overcast
8:55 AM 21.2 °F 9.5 °F 19.4 °F 93% 30.04 in 1.2 mi East 11.5 mph - N/A   Overcast
9:15 AM 21.2 °F 10.9 °F 21.2 °F 100% 30.06 in 1.2 mi East 9.2 mph - N/A   Overcast
9:35 AM 21.2 °F 10.1 °F 21.2 °F 100% 30.06 in 1.5 mi East 10.4 mph - N/A   Overcast
9:55 AM 23.0 °F 12.4 °F 21.2 °F 93% 30.06 in 1.2 mi East 10.4 mph - N/A   Overcast
10:15 AM 23.0 °F 13.1 °F 23.0 °F 100% 30.06 in 1.0 mi ESE 9.2 mph - N/A   Overcast
10:35 AM 23.0 °F 12.4 °F 23.0 °F 100% 30.07 in 1.0 mi ESE 10.4 mph - N/A   Overcast
10:55 AM 23.0 °F 13.1 °F 23.0 °F 100% 30.07 in 1.0 mi ESE 9.2 mph - N/A   Overcast
11:15 AM 23.0 °F 13.9 °F 23.0 °F 100% 30.07 in 1.2 mi ESE 8.1 mph - N/A   Overcast
11:35 AM 24.8 °F 16.1 °F 24.8 °F 100% 30.07 in 1.8 mi ESE 8.1 mph - N/A   Overcast
11:55 AM 24.8 °F 16.1 °F 24.8 °F 100% 30.07 in 2.0 mi ESE 8.1 mph - N/A   Overcast
12:15 PM 24.8 °F 16.1 °F 24.8 °F 100% 30.07 in 3.0 mi ESE 8.1 mph - N/A   Overcast
12:35 PM 24.8 °F 16.1 °F 24.8 °F 100% 30.07 in 3.0 mi SE 8.1 mph - N/A   Overcast
12:55 PM 26.6 °F 18.2 °F 26.6 °F 100% 30.06 in 4.0 mi SE 8.1 mph - N/A   Overcast
1:15 PM 26.6 °F 19.1 °F 26.6 °F 100% 30.05 in 4.0 mi SE 6.9 mph - N/A   Overcast
1:35 PM 26.6 °F 17.5 °F 26.6 °F 100% 30.05 in 5.0 mi SSE 9.2 mph - N/A   Overcast
1:55 PM 28.4 °F 20.4 °F 28.4 °F 100% 30.04 in 6.0 mi ESE 8.1 mph - N/A   Overcast
2:15 PM 28.4 °F 20.4 °F 28.4 °F 100% 30.04 in 5.0 mi ESE 8.1 mph - N/A   Overcast
2:35 PM 28.4 °F 20.4 °F 28.4 °F 100% 30.03 in 5.0 mi ESE 8.1 mph - N/A   Scattered Clouds
2:55 PM 28.4 °F 19.7 °F 28.4 °F 100% 30.03 in 5.0 mi ESE 9.2 mph - N/A   Clear
3:15 PM 28.4 °F 20.4 °F 28.4 °F 100% 30.03 in 6.0 mi ESE 8.1 mph - N/A   Clear
3:35 PM 30.2 °F 21.9 °F 26.6 °F 86% 30.03 in 8.0 mi ESE 9.2 mph - N/A   Clear
3:55 PM 28.4 °F 19.7 °F 26.6 °F 93% 30.02 in 7.0 mi ESE 9.2 mph - N/A   Clear
4:15 PM 30.2 °F 21.9 °F 26.6 °F 86% 30.02 in 8.0 mi ESE 9.2 mph - N/A   Clear
4:35 PM 28.4 °F 19.7 °F 26.6 °F 93% 30.02 in 8.0 mi ESE 9.2 mph - N/A   Clear
4:55 PM 28.4 °F 19.7 °F 26.6 °F 93% 30.01 in 9.0 mi ESE 9.2 mph - N/A   Clear
5:15 PM 28.4 °F 19.7 °F 26.6 °F 93% 30.01 in 8.0 mi ESE 9.2 mph - N/A   Clear
5:35 PM 26.6 °F 17.5 °F 24.8 °F 93% 30.01 in 8.0 mi ESE 9.2 mph - N/A   Clear
5:55 PM 26.6 °F 16.8 °F 24.8 °F 93% 30.01 in 8.0 mi ESE 10.4 mph - N/A   Clear
6:15 PM 24.8 °F 14.6 °F 24.8 °F 100% 30.01 in 7.0 mi ESE 10.4 mph - N/A   Clear
6:35 PM 24.8 °F 14.0 °F 24.8 °F 100% 30.02 in 7.0 mi ESE 11.5 mph - N/A   Clear
6:55 PM 24.8 °F 13.4 °F 24.8 °F 100% 30.02 in 7.0 mi ESE 12.7 mph - N/A   Clear
7:15 PM 24.8 °F 14.0 °F 24.8 °F 100% 30.02 in 7.0 mi ESE 11.5 mph - N/A   Clear
7:35 PM 24.8 °F 14.0 °F 24.8 °F 100% 30.02 in 7.0 mi ESE 11.5 mph - N/A   Clear
7:55 PM 24.8 °F 16.9 °F 24.8 °F 100% 30.02 in 7.0 mi ESE 6.9 mph - N/A   Clear
8:15 PM 24.8 °F 15.3 °F 24.8 °F 100% 30.01 in 6.0 mi ESE 9.2 mph - N/A   Clear
8:35 PM 24.8 °F 17.9 °F 24.8 °F 100% 30.02 in 6.0 mi ESE 5.8 mph - N/A   Clear
8:55 PM 24.8 °F 20.5 °F 24.8 °F 100% 30.02 in 7.0 mi SE 3.5 mph - N/A   Clear
9:15 PM 24.8 °F 15.3 °F 24.8 °F 100% 30.01 in 7.0 mi SE 9.2 mph - N/A   Clear
9:35 PM 24.8 °F 16.1 °F 24.8 °F 100% 30.00 in 7.0 mi SE 8.1 mph - N/A   Clear
9:55 PM 24.8 °F 19.1 °F 24.8 °F 100% 30.00 in 7.0 mi ESE 4.6 mph - N/A   Clear
10:15 PM 24.8 °F 19.1 °F 24.8 °F 100% 30.00 in 5.0 mi North 4.6 mph - N/A   Clear
10:35 PM 24.8 °F 19.1 °F 24.8 °F 100% 30.00 in 5.0 mi North 4.6 mph - N/A   Partly Cloudy
10:55 PM 24.8 °F 19.1 °F 24.8 °F 100% 29.99 in 5.0 mi North 4.6 mph - N/A   Partly Cloudy
11:15 PM 24.8 °F 17.9 °F 24.8 °F 100% 29.99 in 6.0 mi East 5.8 mph - N/A   Partly Cloudy
11:35 PM 24.8 °F 16.9 °F 24.8 °F 100% 29.99 in 5.0 mi SE 6.9 mph - N/A   Mostly Cloudy
11:55 PM 23.0 °F 14.7 °F 23.0 °F 100% 29.99 in 7.0 mi SE 6.9 mph - N/A   Scattered Clouds